星链-5663 (STARLINK-5663 )

导读

STARLINK-5663是美国SpaceX星链互联网星座中的一颗卫星,于2023年1月26日发射升空,属于星链星座大规模组网部署任务的组成部分。星链卫星旨在为全球提供低延迟、高速率的宽带互联网覆盖,这颗卫星承载着拓展星链全球服务覆盖范围的功能,运行在近地轨道,推进星座全球化服务布局的完善。

基本信息
目录编号:
55347
目录名称:
STARLINK-5663
国际标识:
2023-013S
轨道中心:
EARTH
卫星名称:
星链-5663
卫星全名:
星链-5663 (STARLINK-5663 )
卫星状态:
在轨 (已飞行1325 天)
发射日期:
2023-01-26 UTC
国别 :
美国 (US)
星等 :
--
该卫星已列入 空间交会检测服务 Space Conjunction Data Service (SCDS) ,当前飞行风险评估等级: 无高风险
轨道信息
数据来源 国际轨道数据
星历时间: 2026-09-12T13:06:27+0800
11小时前
查看轨道信息
半长轴: 6861.189km
偏心率: 0.0002033
轨道倾角: 43.005°
近地点辐角 273.856°
升交点赤经 329.685°
平近点角 86.207°
近地点: 481.657km
远地点: 484.447km
周期: 94.267分钟
每日圈数: 15.275792
详细信息
固有亮度:
5
最大亮度:
2.5
卫星平台:
Starlink v1.5
覆盖范围:
全球
运营商:
太空探索技术公司
运营商所在国:
美国
制造商(研发单位):
太空探索技术公司
制造商所在国:
美国
使用方式:
暂无
卫星简介
星链(Starlink)计划是由太空探索技术公司(SpaceX)提出的一个巨型低轨卫星互联网星座项目,计划在2019年至2024年间在太空搭建由约1.2万颗卫星组成的“星链”网络,其中1584颗将部署在地球上空550千米处的近地轨道,并从2020年开始工作。该卫星仍在工作。
2D轨道图
3D轨道图
轨道高度分析图
轨道倾角分析图
轨道综合分析图
查看轨道综合分析图
与全量物体交会距离演化趋势
与全量物体交会风险概率演化趋势